GSAT-17

Last updated on Tue Sep 22 2026 00:03:02 GMT+0000 (Coordinated Universal Time)

1 42815U 17040B 26264.57885774 -.00000262 00000+0 00000+0 0 9992 2 42815 0.0201 111.4551 0004321 136.3899 54.5166 1.00272397 33758
UTC large
Height (km)
Speed (km/s)
/
Latitude / Longitude
Inclination (degrees)
Orbital Period (minutes)
Azimuth
Elevation
Range (km)
Doppler Factor

Next 0 passes for location: London (51.5072 / 0.1276)

No passes found over London.
GSAT-17